Showing default

LEMUR 2 ARIANNA, 62699

Orbit data source: Space-Track

LEMUR 2 ARIANNA, 62699 is a payload satellite owned by Spire (US) in SSO that was launched on Tue, 14 Jan 2025 UTC via an FALCON 9 launch vehicle from the Air Force Western Test Range (AFWTR). Payload-class satellites include a variety of spacecraft equipped with specific instruments for various scientific and technological missions. These include communications satellites like Starlink; space stations such as the ISS; scientific satellites like the Hubble; Earth observation satellites from companies like Planet Labs, Umbra, and HawkEye 360; GPS; miniature CubeSats for education and research; and military/defense satellites.

Loading next visibility...
Identifier
62699, 2025-009CU
Orbit
SSO
Country
Flag of USUS
Related business
Manufacturer
Spire/Glasgow
Mission
Operational Commercial Com/MetRO
Bus & Motor
CUBESAT 3U, Unknown motor
Mass
7.6 kg wet, 7.6 kg dry
Launch date (UTC)
2025-01-14 (1 year ago)
Launch vehicle
FALCON 9
Launch site
Air Force Western Test Range (AFWTR)
Object type
Payload
Rocket body
Debris
Shape & HBR
Box + 2 Pan, 0.2 m
Radar Cross Section
0.063 m², Medium (>0.1 m² and < 1m²)

Expand to show TLE details & history
Last TLE update: 16 hours ago

TLE from 16 hours ago
0 LEMUR 2 ARIANNA
1 62699U 25009CU  26171.22118959  .00005922  00000-0  45010-3 0  9993
2 62699  97.6891 252.5802 0004519 109.8072 250.3640 15.02521287 78013
Epoch: 2026-06-20T05:18Z
TLE epoch observation values (Epoch: 2026-06-20T05:18:30.780Z)
Latitude
-0.00007°
Longitude
-95.48697°
Altitude
563.238 km
Speed
7.579 km/s
True Right ascension
16h 50m 19s
True Declination
0° 00' 00"
Sunlit
Object was in full shadow at epoch
Visualization orbit readout
Latitude
Unknown
Longitude
Unknown
Altitude
Unknown
Speed
Unknown
Apparent Right ascension
Unknown
Apparent Declination
Unknown
Sunlit
N/A
Visualization observer readout
Local Sidereal Time
08:41:44
Azimuth
Unknown
Elevation
Unknown
Doppler factor
Unknown
Orbital elements
Apogee altitude
559.26 km
Perigee altitude
552.993 km
Semi-major axis
6,934.263 km
Eccentricity
0.00045
Inclination
97.6891°
RAAN
252.5802°
Arg. of periapsis
109.8072°
True anomaly
250.31524°
Mean anomaly
250.364°
Eccentric anomaly
250.33962°
Mean motion
3.75874 °/min
Orbital period
95.78 mins
BSTAR
0.0004501
Loading maneuver chart data...
Computing Atmospheric mass density...
Loading historical data...
Loading historical data...
Loading historical data...
Loading historical data...
Loading historical data...
Loading historical data...
Loading historical data...

Documentation

Showing up to 5 results
|